Погода в Преображенском

Россия / Республика Адыгея     45°05′10″N   39°37′24″E
темп.,
°C
ветер,
м/с
пор.,
м/с
влажн.,
%
обл.,
%
осадки,
мм/ч
давл.,
гПа
погр.,
м
19 апреля, пн
пн1900:00+11зюз1296100 0.2 101630
03:00+11сз1198100 0.6 101530
06:00+11юв1199100 0.8 101517
09:00+13вюв1298100 3.4 101490
12:00+14з41095100 4.9 1014515
15:00+14зюз41193100 5.5 1014521
18:00+14сз3497100 0.8 1013177
21:00+13вюв2498100 2.1 1013132
20 апреля, вт
вт2000:00+13всв3798100 1.2 1009192
03:00+13св5898100 4.3 1008226
06:00+12в2397100 0.1 100572
09:00+16ююз358783 0.1 1005336
12:00+17з6981100 0.1 1006906
15:00+17юз8136780 0.1 10081225
18:00+13юз9147498 0.0 1009723
21:00+11зюз9157766 0.0 1013793
21 апреля, ср
ср2100:00+10зюз8138212 0.0 1014775
03:00+9юз5118984 0.0 1015490
06:00+9зюз498866 0.0 1016419
09:00+12зюз4578100 0.0 1018753
12:00+14зюз3567100 0.1 10181029
15:00+16з456113 0.2 10181173
18:00+15з35725 0.0 1019170
21:00+10юз348465 0.1 102164
22 апреля, чт
чт2200:00+8з3388100 0.0 102138
03:00+7зюз2290100 0.0 102217
06:00+7юз1190100 0.0 102215
09:00+12зюз1174100 0.0 1023390
12:00+15з22610 0.0 10231010
15:00+17сз22540 0.0 1022865
18:00+16зюз11693 0.1 102226
21:00+11ссз228050 0.1 102312
23 апреля, пт
пт2300:00+10с228488 0.0 102334
03:00+8зсз11910 0.0 102311
06:00+8ююз11930 0.0 102412
09:00+13ю11775 0.0 1023408
12:00+17юз126360 0.0 10221216
15:00+18ссз225497 0.0 10211014
18:00+17ссв1166100 0.0 102019
21:00+12в22708 0.0 102111